EWG4SC EDDK-EDDM

Flight info

Callsign EWG4SC
Flight time 0h 46m
Altitude 35000
Route KUMIK2Q KUMIK Y854 BOMBI T104 ROKIL ROKIL1A
Aircraft A319/M-SDE3FGHIRWY/LB1

Departure

Time 2026-05-04 06:57
Airport Cologne Bonn Airport (EDDK)

Arrival

Time 2026-05-04 07:44
Airport Munich Airport (EDDM)
Time Latitude Longitude Altitude Speed Heading
2026-05-04 06:15 50.87962 7.12408 232 ft 0 kts 245°
2026-05-04 06:46 50.87963 7.12413 232 ft 3 kts 246°
2026-05-04 06:46 50.87974 7.12451 232 ft 4 kts 240°
2026-05-04 06:48 50.88009 7.12484 236 ft 0 kts 137°
2026-05-04 06:50 50.87989 7.12512 233 ft 9 kts 137°
2026-05-04 06:51 50.87940 7.12583 232 ft 10 kts 135°
2026-05-04 06:51 50.87949 7.12658 232 ft 9 kts 42°
2026-05-04 06:51 50.87991 7.12739 236 ft 8 kts 64°
2026-05-04 06:51 50.87994 7.12750 236 ft 0 kts 68°
2026-05-04 06:56 50.87998 7.12766 237 ft 7 kts 68°
2026-05-04 06:57 50.85372 7.16759 1611 ft 154 kts 141°
2026-05-04 06:58 50.84516 7.17952 2059 ft 174 kts 141°
2026-05-04 06:58 50.83557 7.19299 2446 ft 195 kts 140°
2026-05-04 06:58 50.82495 7.20793 2939 ft 211 kts 139°
2026-05-04 06:58 50.81638 7.22734 3663 ft 220 kts 111°
2026-05-04 06:59 50.81358 7.25124 4551 ft 229 kts 97°
2026-05-04 06:59 50.81160 7.27759 5085 ft 254 kts 99°
2026-05-04 06:59 50.80895 7.30642 5763 ft 273 kts 103°
2026-05-04 06:59 50.80202 7.33473 6665 ft 280 kts 122°
2026-05-04 07:01 50.70634 7.51718 12301 ft 344 kts 130°
2026-05-04 07:01 50.69169 7.54729 13175 ft 348 kts 130°
2026-05-04 07:02 50.67686 7.57762 14013 ft 351 kts 131°
2026-05-04 07:02 50.66184 7.60814 14776 ft 354 kts 131°
2026-05-04 07:02 50.64663 7.63887 15524 ft 357 kts 132°
2026-05-04 07:02 50.63122 7.66992 16274 ft 361 kts 132°
2026-05-04 07:03 50.61570 7.70114 17019 ft 364 kts 132°
2026-05-04 07:03 50.60023 7.73217 17787 ft 366 kts 132°
2026-05-04 07:03 50.58442 7.76381 18509 ft 370 kts 133°
2026-05-04 07:03 50.56846 7.79574 19159 ft 373 kts 133°
2026-05-04 07:04 50.55237 7.82798 19809 ft 376 kts 133°
2026-05-04 07:04 50.53612 7.86055 20460 ft 380 kts 133°
2026-05-04 07:04 50.51972 7.89334 21099 ft 383 kts 133°
2026-05-04 07:04 50.50316 7.92637 21713 ft 387 kts 133°
2026-05-04 07:05 50.48642 7.95972 22322 ft 391 kts 133°
2026-05-04 07:05 50.46948 7.99338 22917 ft 395 kts 133°
2026-05-04 07:05 50.45794 8.01629 23337 ft 397 kts 133°
2026-05-04 07:05 50.44075 8.05041 23874 ft 401 kts 133°
2026-05-04 07:06 50.40590 8.11957 24861 ft 407 kts 133°
2026-05-04 07:06 50.38826 8.15451 25352 ft 410 kts 133°
2026-05-04 07:06 50.37072 8.18919 25827 ft 413 kts 133°
2026-05-04 07:07 50.35279 8.22457 26293 ft 416 kts 133°
2026-05-04 07:08 50.22272 8.47944 29499 ft 439 kts 133°
2026-05-04 07:09 50.20353 8.51672 29929 ft 442 kts 134°
2026-05-04 07:09 50.18413 8.55429 30339 ft 445 kts 134°
2026-05-04 07:09 50.16465 8.59198 30714 ft 448 kts 134°
2026-05-04 07:09 50.14503 8.62988 31079 ft 450 kts 134°
2026-05-04 07:10 50.12531 8.66791 31440 ft 452 kts 134°
2026-05-04 07:10 50.10547 8.70613 31800 ft 455 kts 134°
2026-05-04 07:12 49.95240 8.94785 34940 ft 444 kts 143°
2026-05-04 07:12 49.90717 9.01150 35027 ft 432 kts 143°
2026-05-04 07:13 49.86312 9.07337 35027 ft 429 kts 143°
2026-05-04 07:13 49.81880 9.13544 35026 ft 430 kts 143°
2026-05-04 07:14 49.70772 9.29040 35029 ft 430 kts 143°
2026-05-04 07:15 49.66331 9.35212 35027 ft 429 kts 143°
2026-05-04 07:15 49.61908 9.41409 35030 ft 431 kts 139°
2026-05-04 07:16 49.57906 9.48349 34996 ft 434 kts 136°
2026-05-04 07:16 49.53925 9.55337 35012 ft 434 kts 136°
2026-05-04 07:17 49.49931 9.62315 35024 ft 434 kts 136°
2026-05-04 07:17 49.45933 9.69288 35033 ft 434 kts 136°
2026-05-04 07:18 49.41964 9.76201 35038 ft 434 kts 136°
2026-05-04 07:18 49.37962 9.83155 35029 ft 434 kts 136°
2026-05-04 07:19 49.35969 9.86608 34546 ft 433 kts 136°
2026-05-04 07:19 49.33958 9.90078 33936 ft 436 kts 136°
2026-05-04 07:19 49.31934 9.93556 33232 ft 438 kts 136°
2026-05-04 07:19 49.29916 9.97027 32705 ft 435 kts 136°
2026-05-04 07:20 49.27914 10.00471 32208 ft 431 kts 136°
2026-05-04 07:20 49.25927 10.03886 31714 ft 428 kts 136°
2026-05-04 07:20 49.23951 10.07276 31231 ft 425 kts 136°
2026-05-04 07:20 49.21988 10.10640 30754 ft 422 kts 136°
2026-05-04 07:22 49.08500 10.33250 27321 ft 401 kts 138°
2026-05-04 07:22 49.06569 10.36309 26879 ft 399 kts 138°
2026-05-04 07:23 49.04650 10.39349 26455 ft 396 kts 137°
2026-05-04 07:23 49.02750 10.42364 26047 ft 393 kts 137°
2026-05-04 07:23 49.00869 10.45365 25636 ft 390 kts 137°
2026-05-04 07:23 48.99004 10.48351 25214 ft 388 kts 137°
2026-05-04 07:24 48.97151 10.51314 24795 ft 385 kts 137°
2026-05-04 07:24 48.95308 10.54257 24374 ft 383 kts 137°
2026-05-04 07:24 48.93477 10.57181 23951 ft 380 kts 137°
2026-05-04 07:24 48.91666 10.60105 23468 ft 380 kts 133°
2026-05-04 07:25 48.90277 10.63520 22972 ft 382 kts 115°
2026-05-04 07:26 48.83745 10.89031 19842 ft 359 kts 114°
2026-05-04 07:27 48.82842 10.92545 19415 ft 356 kts 114°
2026-05-04 07:27 48.81943 10.96029 19000 ft 353 kts 114°
2026-05-04 07:27 48.81050 10.99479 18582 ft 350 kts 114°
2026-05-04 07:27 48.80165 11.02897 18161 ft 347 kts 114°
2026-05-04 07:28 48.79286 11.06288 17691 ft 344 kts 114°
2026-05-04 07:28 48.78403 11.09700 17291 ft 342 kts 114°
2026-05-04 07:28 48.77539 11.13018 16952 ft 342 kts 115°
2026-05-04 07:28 48.76668 11.16356 16616 ft 340 kts 115°
2026-05-04 07:29 48.75802 11.19678 16284 ft 338 kts 114°
2026-05-04 07:29 48.74940 11.22992 15956 ft 338 kts 114°
2026-05-04 07:29 48.74081 11.26291 15631 ft 336 kts 115°
2026-05-04 07:29 48.73221 11.29569 15310 ft 334 kts 115°
2026-05-04 07:30 48.72363 11.32825 14991 ft 332 kts 115°
2026-05-04 07:30 48.71508 11.36068 14680 ft 330 kts 115°
2026-05-04 07:30 48.70661 11.39289 14353 ft 328 kts 115°
2026-05-04 07:30 48.69819 11.42496 14052 ft 327 kts 115°
2026-05-04 07:31 48.68984 11.45682 13702 ft 324 kts 115°
2026-05-04 07:31 48.68154 11.48839 13275 ft 322 kts 115°
2026-05-04 07:33 48.62450 11.70315 10408 ft 307 kts 115°
2026-05-04 07:33 48.61653 11.73301 10038 ft 306 kts 115°
2026-05-04 07:33 48.60870 11.76242 9848 ft 296 kts 114°
2026-05-04 07:33 48.60106 11.79107 9568 ft 291 kts 114°
2026-05-04 07:34 48.59350 11.81924 9234 ft 288 kts 114°
2026-05-04 07:34 48.58596 11.84722 8872 ft 287 kts 114°
2026-05-04 07:34 48.57848 11.87502 8547 ft 285 kts 114°
2026-05-04 07:34 48.57104 11.90277 8197 ft 284 kts 114°
2026-05-04 07:35 48.56362 11.93040 7838 ft 283 kts 114°
2026-05-04 07:35 48.55621 11.95791 7504 ft 282 kts 114°
2026-05-04 07:35 48.54881 11.98529 7148 ft 281 kts 113°
2026-05-04 07:35 48.54144 12.01259 6800 ft 281 kts 113°
2026-05-04 07:36 48.53410 12.03981 6477 ft 279 kts 113°
2026-05-04 07:36 48.52676 12.06691 6149 ft 278 kts 112°
2026-05-04 07:38 48.43676 12.15860 5087 ft 214 kts 174°
2026-05-04 07:38 48.42237 12.15894 4994 ft 201 kts 195°
2026-05-04 07:38 48.41074 12.14884 5012 ft 191 kts 220°
2026-05-04 07:38 48.40110 12.13518 5007 ft 191 kts 224°
2026-05-04 07:39 48.39225 12.12014 5007 ft 194 kts 239°
2026-05-04 07:39 48.38777 12.10092 4993 ft 197 kts 262°
2026-05-04 07:39 48.38623 12.08034 4814 ft 198 kts 264°
2026-05-04 07:39 48.38476 12.05971 4564 ft 198 kts 264°
2026-05-04 07:40 48.38325 12.03914 4302 ft 198 kts 264°
2026-05-04 07:40 48.38172 12.01855 4035 ft 198 kts 264°
2026-05-04 07:40 48.38019 11.99794 3791 ft 198 kts 265°
2026-05-04 07:40 48.37867 11.97759 3571 ft 192 kts 265°
2026-05-04 07:41 48.37719 11.95781 3272 ft 188 kts 265°
2026-05-04 07:41 48.37579 11.93890 3020 ft 174 kts 265°
2026-05-04 07:41 48.37453 11.92233 2890 ft 151 kts 264°
2026-05-04 07:41 48.37338 11.90721 2650 ft 140 kts 265°
2026-05-04 07:42 48.37228 11.89293 2426 ft 134 kts 265°
2026-05-04 07:42 48.37126 11.87925 2241 ft 131 kts 264°
2026-05-04 07:42 48.37022 11.86573 2084 ft 130 kts 264°
2026-05-04 07:42 48.36922 11.85226 1922 ft 129 kts 264°
2026-05-04 07:43 48.36819 11.83889 1749 ft 128 kts 265°
2026-05-04 07:43 48.36722 11.82572 1566 ft 125 kts 265°
2026-05-04 07:43 48.36631 11.81335 1465 ft 106 kts 263°
2026-05-04 07:43 48.36564 11.80477 1464 ft 67 kts 263°
2026-05-04 07:44 48.36515 11.79904 1463 ft 35 kts 255°
2026-05-04 07:44 48.36416 11.79628 1463 ft 20 kts 230°
2026-05-04 07:44 48.36396 11.79592 1464 ft 0 kts 230°
2026-05-04 07:44 48.36395 11.79590 1464 ft 1 kts 230°
2026-05-04 07:45 48.36389 11.79579 1464 ft 1 kts 230°
2026-05-04 07:45 48.36380 11.79560 1465 ft 5 kts 232°
2026-05-04 07:45 48.36339 11.79477 1463 ft 15 kts 234°
2026-05-04 07:45 48.36261 11.79332 1465 ft 20 kts 220°
2026-05-04 07:46 48.36139 11.79310 1459 ft 17 kts 173°
2026-05-04 07:46 48.36009 11.79331 1464 ft 19 kts 173°
2026-05-04 07:46 48.35884 11.79376 1465 ft 17 kts 164°
2026-05-04 07:46 48.35773 11.79400 1460 ft 7 kts 174°
2026-05-04 07:47 48.35765 11.79401 1463 ft 0 kts 174°
2026-05-04 07:47 48.35757 11.79402 1464 ft 3 kts 174°
2026-05-04 07:47 48.35740 11.79378 1459 ft 5 kts 257°
2026-05-04 07:49 48.35730 11.79257 1462 ft 0 kts 263°